Hourly Weather Roundup
Issued by NWS Central Illinois

Home | Current Version | Previous Version | Text Only | Print | Product List | Glossary On
Versions: 1 2 3 4 5 6 7 8 9 10 11 12 13 14 15 16 17 18 19 20 21 22 23 24 25 26 27 28 29 30 31 32 33 34 35 36 37 38 39 40 41 42 43 44 45 46 47 48 49 50
000
NZUS43 KILX 271910
HWRILX

AREA WEATHER ROUNDUP
NATIONAL WEATHER SERVICE, LINCOLN IL
200 PM CDT WED JUL 27 2016


CITY           SKY/WX    TMP DP  RH WIND       PRES   REMARKS
BLOOMINGTON    MOSUNNY   84  69  60 SE6       30.01F HX  88
CHAMPAIGN      SUNNY     85  68  56 SE5       30.00F HX  88
DANVILLE       SUNNY     83  68  58 CALM      29.99F HX  86
DECATUR        SUNNY     87  71  58 E7        29.99F HX  93
EFFINGHAM      CLOUDY    85  75  71 E6        30.00F HX  94
FLORA          CLOUDY    85  76  75 CALM      29.99F HX  94
GALESBURG      MOSUNNY   85  70  60 SE3       29.98F HX  89
JACKSONVILLE   PTSUNNY   86  75  70 E9        29.97F HX  95
LACON          MOSUNNY   85  67  54 SE7       29.98F HX  88
LAWRENCEVILLE  CLOUDY    86  75  69 N6        29.98F HX  95
LITCHFIELD     NOT AVBL
$$


CITY           SKY/WX    TMP DP  RH WIND       PRES   REMARKS
LINCOLN        MOSUNNY   86  73  66 SE6       29.98F HX  93
MACOMB         MOSUNNY   84  71  65 CALM      30.00F HX  89
MATTOON        MOSUNNY   84  70  62 E5        29.99F HX  88
MT CARMEL AP   PTSUNNY   83  76  78 N3        29.98F HX  91
OLNEY-NOBLE AP LGT RAIN  82  77  83 CALM      29.99F HX  91
PARIS          MOSUNNY   85  70  60 CALM      30.01F HX  90
PEORIA         MOSUNNY   86  69  56 VRB3      29.98F HX  90
PONTIAC        SUNNY     85  72  64 S5        30.00F HX  91
RANTOUL        NOT AVBL
ROBINSON       PTSUNNY   86  74  68 N3        29.99F HX  93
SPRINGFIELD    TSTM      81  76  84 SE6       29.98F HX  87
TAYLORVILLE    CLOUDY    83  73  72 MISG      29.98F HX  88
$$

...REGIONAL REPORTS...


CITY           SKY/WX    TMP DP  RH WIND       PRES   REMARKS
CHICAGO O`HARE MOSUNNY   87  63  44 VRB5      29.98F HX  88
KANKAKEE       SUNNY     87  68  51 CALM      30.01F HX  91
MOLINE         PTSUNNY   86  70  58 S10       29.97F HX  90
MOUNT STERLING PTSUNNY   85  74  69 NE3       29.97F HX  93
MOUNT VERNON   CLOUDY    84  73  70 MISG      29.97F HX  91
PITTSFIELD     MOSUNNY   86  76  71 NE3       29.97F HX  96
QUINCY         PTSUNNY   86  74  67 SE7       29.96F HX  94
ROCKFORD       CLOUDY    85  65  51 S5        29.99F HX  86
$$


CITY           SKY/WX    TMP DP  RH WIND       PRES   REMARKS
BURLINGTON     SUNNY     85  71  63 VRB6      29.97F HX  90
CEDAR RAPIDS   MOSUNNY   83  69  62 S6        29.98F HX  86
DES MOINES     PTSUNNY   85  68  56 VRB6      29.97F HX  88
KIRKSVILLE     PTSUNNY   89  68  49 SE3       29.99F HX  93
OTTUMWA        PTSUNNY   83  65  54 S5        29.97F HX  85
ST LOUIS       MOSUNNY   89  71  55 CALM      29.96F HX  95
$$


CITY           SKY/WX    TMP DP  RH WIND       PRES   REMARKS
TERRE HAUTE    SUNNY     87  66  49 S3        30.00F HX  89
EVANSVILLE     CLOUDY    89  73  59 CALM      29.96F HX  97
INDIANAPOLIS   MOSUNNY   88  64  44 W7        30.00S HX  89
LAFAYETTE      MOSUNNY   86  64  47 CALM      30.00F HX  87
MADISON        PTSUNNY   85  65  51 VRB3      29.98F HX  86
MILWAUKEE      PTSUNNY   88  66  48 S9        29.97F HX  90
$$






USA.gov is the U.S. government's official web portal to all federal, state and local government web resources and services.